Theta_e
364 364 364 363 363 360 360 362 364 365 363 361 360 360 361 360 359 359 358 361 364 364 362 361 363 363 363 363 362 362 361 360 358 357 355 353 351 349 346 346 345 344
364 364 365 364 363 362 361 361 362 364 364 362 360 359 361 361 361 361 360 361 364 365 364 362 363 365 363 362 362 363 362 361 359 358 356 353 351 350 347 346 346 345
364 364 365 364 363 363 362 361 361 362 363 363 362 359 360 361 362 362 362 362 363 365 365 363 363 364 363 361 361 362 362 363 361 358 357 355 352 351 349 346 346 345
365 365 366 365 364 364 363 362 361 362 363 363 363 361 359 360 362 364 364 363 364 365 365 364 363 363 363 361 361 361 361 363 362 359 358 356 353 352 351 348 345 345
365 365 366 365 364 363 365 364 362 362 362 361 362 363 361 361 361 364 366 365 365 366 365 364 363 363 363 363 362 361 360 361 362 360 358 356 355 353 351 350 347 345
366 366 366 365 364 364 365 365 363 362 362 361 361 362 363 362 362 363 365 365 365 365 363 363 364 363 364 364 363 361 360 360 360 361 360 358 356 354 352 351 349 346
366 367 366 365 364 364 365 366 365 363 362 362 362 362 363 364 364 364 364 365 365 365 363 363 364 364 363 364 364 362 361 360 360 360 359 358 357 355 353 352 351 349
366 367 367 366 365 365 366 367 366 365 364 363 363 363 364 364 365 365 365 365 365 365 365 363 364 365 364 364 364 363 362 361 360 360 359 358 357 356 355 353 352 351
366 367 367 367 365 365 366 366 366 366 366 364 364 364 364 365 365 366 366 366 365 365 365 364 364 365 365 364 364 364 363 361 360 361 360 359 358 357 356 355 354 353
367 367 366 366 365 364 365 365 365 366 366 365 364 362 363 365 366 366 367 367 366 365 366 365 365 366 366 365 365 365 364 361 361 361 361 360 360 359 358 356 355 355
368 368 366 366 365 364 364 364 362 362 364 365 365 362 361 363 366 366 367 369 368 366 366 366 366 366 367 366 366 365 364 362 361 362 362 362 361 361 359 358 357 356
369 368 366 366 366 364 363 363 360 359 361 364 365 363 361 361 365 367 367 369 369 368 367 367 368 367 367 367 365 365 365 364 362 362 362 363 363 362 360 359 358 358
369 368 367 366 366 365 362 361 359 358 358 362 364 365 364 361 363 367 368 368 370 369 368 368 368 368 368 368 366 365 365 365 363 362 363 364 363 363 361 360 359 358
370 369 368 365 365 366 364 361 360 359 358 359 363 365 365 363 362 365 368 368 369 370 369 369 369 369 368 369 367 365 365 365 364 363 364 364 364 362 361 360 359 358
371 370 369 367 365 366 367 364 361 360 360 359 362 365 365 365 363 363 367 369 369 370 369 369 370 370 369 368 368 367 365 365 364 363 363 363 364 363 361 360 359 358
372 371 370 369 367 367 369 367 364 362 362 361 362 364 365 366 364 363 365 368 369 370 370 370 370 370 368 366 366 367 366 365 364 364 363 362 363 363 361 360 359 358
373 372 371 371 370 369 369 369 367 364 364 363 363 364 365 366 366 365 364 366 368 370 370 370 370 370 368 365 363 364 365 366 365 364 364 363 363 363 362 360 359 359
373 373 372 371 371 370 369 370 369 367 366 366 366 365 366 367 367 367 366 365 366 368 369 370 370 369 368 365 363 361 362 364 365 364 364 363 363 363 362 360 359 359
373 374 373 372 372 371 370 371 370 370 368 368 368 367 367 368 368 368 367 366 365 367 368 369 370 369 368 366 363 361 360 362 364 365 364 362 363 362 361 361 360 359
374 374 374 373 373 371 371 371 371 371 370 368 369 368 368 369 369 369 369 368 366 366 366 368 369 369 368 366 364 362 360 360 362 364 364 363 363 363 362 361 361 361
374 374 374 374 373 372 372 371 371 372 371 369 369 369 369 369 369 369 369 369 368 367 366 367 367 367 368 367 365 363 361 360 361 363 365 365 365 364 363 362 362 362
374 374 374 374 373 373 372 371 372 372 371 370 369 368 369 369 369 370 369 369 369 368 367 366 366 366 366 367 366 364 362 361 360 362 364 365 365 365 364 363 363 363
373 373 373 373 373 373 372 372 372 372 371 371 370 368 368 369 369 370 369 369 369 369 368 367 366 365 365 366 365 364 362 361 360 362 363 363 364 364 364 364 364 363
372 371 372 373 373 374 372 372 372 371 371 372 370 368 368 367 369 369 369 369 369 369 369 368 367 367 366 365 365 364 363 361 360 361 362 362 363 364 363 364 364 363
370 370 371 372 372 373 372 372 371 371 372 372 370 369 368 367 367 368 369 369 369 369 369 368 368 367 366 365 364 363 363 361 360 361 362 362 362 363 363 364 363 363
369 370 371 371 371 372 371 371 371 370 371 370 370 369 369 368 367 366 367 368 368 368 368 367 367 367 366 365 365 363 362 361 361 362 362 362 363 363 363 364 363 362
Wind_Speed
26 25 25 26 25 24 24 23 22 21 21 21 20 20 20 20 19 19 19 20 20 19 19 19 19 18 16 15 15 13 13 14 14 14 14 14 13 13 13 14 14 12
28 26 25 25 25 25 25 25 23 22 22 22 21 20 19 20 20 20 20 20 21 20 20 20 20 19 18 17 16 15 14 15 15 15 15 15 14 14 14 15 15 13
29 28 27 27 26 26 26 25 24 24 22 22 22 21 20 19 20 21 22 22 22 21 21 21 21 21 20 18 18 17 16 16 16 16 16 16 16 15 15 15 15 15
31 30 29 28 27 26 25 25 25 25 24 23 23 22 21 20 20 21 22 23 23 22 22 22 22 22 21 20 19 18 17 17 17 17 17 17 17 17 16 16 16 16
34 32 30 29 27 26 25 26 26 26 25 25 23 22 22 22 21 21 22 23 23 23 22 23 23 23 22 21 21 19 18 17 18 18 18 18 18 18 17 17 17 17
34 33 32 30 28 27 26 27 28 27 26 26 24 23 23 23 23 22 22 23 23 23 23 23 23 23 23 23 22 20 19 18 19 20 19 19 19 19 18 18 19 19
34 34 33 31 29 29 28 28 27 28 27 26 25 24 24 24 24 24 24 24 24 23 23 24 24 24 23 23 23 22 21 19 20 21 22 21 20 20 20 19 20 20
34 33 33 32 31 30 30 29 27 28 27 26 25 25 25 25 25 25 25 24 24 23 24 24 24 25 24 24 24 23 22 21 21 23 23 23 22 22 22 21 20 21
34 33 32 33 32 32 31 31 29 28 28 28 27 26 26 26 26 25 25 25 25 24 24 24 24 25 25 24 25 24 24 22 22 23 25 25 24 24 23 22 22 22
34 33 33 34 34 33 33 32 31 29 29 29 29 27 26 26 26 26 25 25 25 25 24 24 24 25 25 25 25 25 24 24 24 24 25 26 25 25 24 24 23 23
34 34 34 35 35 34 34 34 33 31 29 29 30 29 29 27 26 26 26 26 26 26 26 26 25 26 26 26 25 25 25 25 25 25 26 26 26 26 25 25 25 24
35 35 35 36 36 35 34 34 34 32 30 29 29 30 30 28 27 27 27 27 27 27 27 27 27 27 27 27 26 25 26 26 25 25 26 26 26 26 26 26 26 25
35 36 35 35 36 35 34 33 33 33 32 30 29 29 29 29 29 28 28 28 28 28 28 28 28 28 28 28 28 27 27 27 26 25 26 26 26 26 27 26 26 26
35 35 35 35 35 34 33 33 32 33 33 31 29 29 29 30 30 29 28 28 29 29 29 29 30 30 30 30 29 28 28 27 27 26 26 26 26 27 27 26 26 26
32 32 33 34 33 33 32 32 32 32 32 31 30 29 29 29 29 29 29 29 29 30 30 30 30 31 31 31 30 29 28 28 27 27 27 27 27 27 27 27 26 26
30 31 31 31 31 32 32 31 31 31 30 31 31 29 28 28 28 29 29 29 29 30 30 30 30 31 33 35 34 31 29 28 27 27 27 27 27 27 27 27 27 27
28 29 29 29 30 30 30 30 30 30 30 30 30 30 29 27 27 28 29 29 29 29 30 30 30 32 35 38 39 36 32 29 28 28 27 28 28 28 27 27 28 28
28 28 28 28 29 28 28 28 28 28 28 28 29 30 29 28 27 28 29 29 28 28 29 30 30 32 36 39 41 42 39 32 28 28 28 28 29 29 29 28 28 29
28 28 28 28 28 28 27 26 27 28 29 29 28 28 28 29 29 29 29 30 29 29 29 30 30 32 36 40 42 44 44 39 31 27 28 29 30 31 30 30 30 30
28 29 29 28 28 28 27 27 28 29 30 29 27 28 29 30 30 29 29 30 31 30 30 30 30 31 35 40 42 43 45 44 36 28 28 30 31 32 31 30 30 30
28 28 27 26 26 27 28 29 29 29 29 28 28 28 29 29 29 30 30 30 31 31 30 30 30 32 34 38 41 42 44 45 40 31 28 29 30 32 31 30 31 31
27 27 25 25 26 27 28 29 29 29 28 28 27 27 27 28 28 29 30 30 30 30 31 31 31 32 34 36 39 41 42 45 43 35 29 29 29 31 32 31 31 32
27 27 26 27 27 28 29 30 29 28 27 27 27 26 27 27 27 28 28 28 29 30 31 31 30 32 35 36 38 40 41 45 45 37 31 31 30 30 32 32 34 35
27 27 27 27 28 28 28 27 26 26 25 25 25 26 26 26 25 25 25 26 28 30 30 30 29 30 34 36 38 40 42 46 45 37 32 33 33 32 33 34 35 36
25 25 25 26 26 26 25 24 24 24 23 23 24 24 24 24 24 24 24 25 26 27 29 30 29 30 33 36 38 40 42 46 44 37 34 36 34 32 32 33 35 37
23 24 25 25 24 24 23 23 23 22 22 23 23 23 23 23 23 23 24 24 24 25 28 30 30 30 32 35 38 40 43 46 43 36 34 34 31 30 30 31 33 35
Wind_Direction
201 202 203 204 205 208 208 208 208 208 209 211 212 213 214 213 212 210 209 208 207 208 208 205 203 201 200 199 197 196 195 193 194 194 194 198 207 215 215 212 214 219
201 203 203 204 206 208 209 210 209 210 211 213 214 215 215 213 211 209 209 207 206 207 206 204 203 200 198 197 196 196 196 195 195 194 195 199 206 213 217 216 215 218
200 202 204 205 206 208 209 210 210 211 213 213 215 215 215 213 211 209 208 207 206 205 204 204 204 202 199 198 197 198 198 197 196 194 195 198 204 213 217 217 217 215
200 202 204 206 207 208 209 210 210 211 212 213 215 215 215 214 213 210 208 208 206 205 203 202 202 202 202 200 197 198 199 200 200 196 196 200 204 211 216 215 218 216
200 201 204 206 207 208 209 210 211 211 211 213 214 214 213 214 213 211 209 207 206 206 205 202 201 201 200 199 198 198 199 199 201 199 197 200 203 208 215 215 216 217
200 201 204 205 206 206 208 210 211 211 212 213 213 213 213 213 212 211 210 209 209 208 208 205 202 200 199 199 200 200 200 200 201 201 199 202 205 207 212 214 215 216
199 200 202 204 205 205 207 210 210 210 212 211 211 212 212 211 211 211 210 211 211 210 209 207 203 202 200 199 201 201 201 202 200 200 202 205 208 209 210 212 214 214
198 199 201 202 204 205 207 208 208 209 210 209 211 211 211 211 211 210 210 210 211 211 211 208 203 202 201 199 202 202 200 202 202 200 203 205 208 210 210 210 212 212
198 199 200 201 203 205 207 208 209 208 208 208 210 211 211 211 211 210 208 208 210 211 210 210 206 202 202 201 202 202 201 202 204 203 203 204 207 210 209 209 210 211
197 198 200 202 204 206 208 209 209 209 209 209 211 213 213 212 210 210 208 205 207 209 208 209 207 203 204 205 204 202 203 204 205 205 205 204 207 210 208 207 209 210
196 198 200 202 205 207 209 210 211 211 211 211 211 213 214 213 210 208 208 205 204 206 205 205 206 204 204 206 206 204 204 206 206 206 206 205 207 209 208 207 209 211
196 198 201 203 205 208 210 211 213 213 213 212 211 212 212 213 211 207 206 205 203 203 204 203 203 204 204 206 207 206 205 206 207 209 208 207 208 209 208 207 209 212
196 198 201 203 206 209 211 212 213 214 214 213 211 211 211 212 211 208 205 205 203 202 203 202 202 203 204 206 207 208 207 206 207 210 210 209 210 211 210 209 209 212
196 197 200 204 206 208 209 210 212 213 213 213 211 210 211 211 211 209 205 204 203 203 203 202 201 202 204 205 206 208 208 206 207 209 210 211 213 213 213 213 212 213
194 196 200 203 205 205 206 208 210 211 211 212 212 211 211 212 212 210 207 204 203 203 203 203 202 203 204 205 206 206 207 208 208 209 210 213 215 215 215 215 215 215
193 196 198 201 203 203 204 205 207 208 209 210 212 212 212 211 212 213 211 208 205 203 203 204 204 206 208 209 209 207 206 207 209 209 210 213 216 216 216 216 217 218
192 195 197 199 201 202 202 203 204 207 208 209 211 212 212 212 212 214 214 212 209 206 205 206 207 209 211 212 212 211 208 207 208 208 209 212 216 216 215 216 217 218
191 193 195 198 200 201 201 201 202 204 206 208 209 209 210 212 212 213 215 215 214 211 210 210 211 212 213 213 215 215 212 209 208 209 209 211 216 217 215 215 216 217
190 191 194 197 198 198 199 199 200 203 205 206 207 207 208 210 212 212 213 215 216 215 215 215 215 214 214 215 216 217 215 212 210 210 211 212 216 219 217 214 214 214
190 191 194 195 195 195 195 198 200 203 204 205 205 206 208 210 212 212 213 214 216 217 218 219 219 218 216 216 217 218 217 214 212 213 215 215 217 218 218 216 214 213
191 192 193 192 192 193 195 199 202 203 204 204 205 207 209 210 212 213 214 215 216 218 220 221 222 222 220 217 217 219 218 216 213 213 216 218 218 218 218 218 217 215
192 192 192 192 192 193 196 200 202 203 203 203 206 209 211 212 214 215 216 217 217 217 220 223 223 223 222 220 217 218 218 216 214 214 217 220 221 221 219 217 217 216
194 194 194 194 194 196 200 202 202 203 204 203 206 210 213 214 215 217 218 219 219 219 220 223 225 224 224 222 218 216 215 214 213 213 218 223 225 225 223 221 219 217
197 197 196 196 197 200 202 203 203 205 205 204 207 211 215 217 218 220 221 222 223 223 222 224 227 226 225 224 220 216 213 213 212 211 216 222 224 225 225 224 223 220
199 200 199 199 201 203 204 204 204 206 206 206 209 213 217 219 220 222 224 224 225 226 225 225 227 228 227 225 221 217 213 212 210 210 215 220 221 222 224 225 226 225
198 199 199 201 203 203 204 204 204 205 207 208 211 214 217 220 222 224 227 228 228 230 231 229 229 231 231 227 222 219 215 211 209 210 216 219 219 221 224 225 226 228